Regional Weather Roundup
Issued by NWS Boston, MA

Home | Current Version | Previous Version | Text Only | Print | Product List | Glossary On
Versions: 1 2 3 4 5 6 7 8 9 10 11 12 13 14 15 16 17 18 19 20 21 22 23 24 25 26 27
000
ASUS41 KBOX 041210
RWRBOX

REGIONAL WEATHER ROUNDUP
NATIONAL WEATHER SERVICE TAUNTON MA
800 AM EDT WED MAY 04 2016

NOTE:  "FAIR" INDICATES FEW OR NO CLOUDS BELOW 12,000 FEET WITH NO
SIGNIFICANT WEATHER AND/OR OBSTRUCTIONS TO VISIBILITY.  THE FOLLOWING
OBSERVATION LOCATIONS DO NOT REPORT PRESENT WEATHER...PROVINCETOWN...
SMITHFIELD...BLOCK ISLAND...KEENE...AND OXFORD.

MAZALL-041300-
EASTERN MASSACHUSETTS

CITY           SKY/WX    TMP DP  RH WIND       PRES   REMARKS
BOSTON         CLOUDY    46  43  89 E10       29.90S
6HR MIN TEMP:  45; 6HR MAX TEMP:  46;

BEVERLY        CLOUDY    46  43  89 NE3       29.89R
LAWRENCE       CLOUDY    47  42  83 NE6       29.91R
BEDFORD        CLOUDY    46  44  93 NE5       29.88R
BLUE HILL        N/A     45  42  89 E14       29.86S
NORWOOD        CLOUDY    48  43  82 E7        29.87F
MARSHFIELD     CLOUDY    46  45  93 NE9       29.90R
PLYMOUTH       CLOUDY    47  43  86 NE8       29.87F
TAUNTON        CLOUDY    49  42  77 NE7       29.86F
NEW BEDFORD    CLOUDY    47  43  86 NE8       29.86R
$$

MAZALL-041300-
CAPE COD AND THE ISLANDS

CITY           SKY/WX    TMP DP  RH WIND       PRES   REMARKS
FALMOUTH       CLOUDY    46  43  87 E10       29.87R
HYANNIS        CLOUDY    47  43  86 NE7       29.85S
CHATHAM        PTSUNNY   46  44  93 NE9       29.87R
PROVINCETOWN   MOSUNNY   47  44  90 E10       29.89R
NANTUCKET      PTSUNNY   48  43  82 NE14      29.84R
MARTHAS VNYRD  CLOUDY    48  44  86 E12       29.85R
$$

MAZALL-041300-
CENTRAL AND WESTERN MASSACHUSETTS

CITY           SKY/WX    TMP DP  RH WIND       PRES   REMARKS
WORCESTER      CLOUDY    43  40  89 E9        29.86R
6HR MIN TEMP:  42; 6HR MAX TEMP:  43;

FITCHBURG      CLOUDY    47  42  83 CALM      29.89S
ORANGE         CLOUDY    46  41  82 E5        29.87S
SPRINGFIELD    LGT RAIN  47  44  87 NE5       29.85R
WESTFIELD      LGT RAIN  48  42  80 NE5       29.86R
NORTH ADAMS    CLOUDY    48  41  76 E9        29.85R
PITTSFIELD     CLOUDY    44  41  89 E3        29.83R
$$

RIZALL-041300-
RHODE ISLAND

CITY           SKY/WX    TMP DP  RH WIND       PRES   REMARKS
PROVIDENCE     CLOUDY    47  42  83 NE9       29.87R
6HR MIN TEMP:  45; 6HR MAX TEMP:  47;

NEWPORT        CLOUDY    47  43  86 NE9       29.84F
BLOCK ISLAND   CLOUDY    47  44  90 NE13      29.84R
SMITHFIELD       N/A     45  39  81 E6        29.86S
WESTERLY       CLOUDY    49  42  77 NE8       29.84S
$$

CTZALL-041300-
CONNECTICUT

CITY           SKY/WX    TMP DP  RH WIND       PRES   REMARKS
BRADLEY INTL   LGT RAIN  48  43  82 N7        29.85R
6HR MIN TEMP:  48; 6HR MAX TEMP:  49; 6HR PCP: TRACE;

HARTFORD       CLOUDY    51  42  71 NE7       29.85S
BRIDGEPORT     CLOUDY    50  42  74 E10       29.83S
DANBURY        CLOUDY    48  43  82 E6        29.84R
GROTON         CLOUDY    49  47  93 NE13      29.83S
NEW HAVEN      CLOUDY    50  43  77 E5        29.83S
CHESTER        CLOUDY    48  43  81 NE8       29.82F
MERIDEN        CLOUDY    51  41  68 NE5       29.83F
WILLIMANTIC    CLOUDY    49  41  74 E9        29.85S
OXFORD         CLOUDY    46  41  81 E6        29.84S
$$

MEZ002-015-021-024-NHZ003-005-008-011-012-014-VTZ005-008-041300-
NORTHERN NEW ENGLAND

CITY           SKY/WX    TMP DP  RH WIND       PRES   REMARKS
PORTLAND ME    CLOUDY    47  43  86 N3        29.92R
6HR MIN TEMP:  40; 6HR MAX TEMP:  47;

BANGOR ME      CLOUDY    49  40  71 NE7       29.94R
CONCORD NH     CLOUDY    47  41  80 CALM      29.90R
MANCHESTER NH  CLOUDY    47  41  80 E3        29.89R
NASHUA NH      CLOUDY    47  42  83 E3        29.90R
PORTSMOUTH NH  CLOUDY    46  42  86 NE5       29.90R
JAFFREY NH     CLOUDY    44  39  82 CALM      29.87R
KEENE NH       CLOUDY    46  43  87 CALM      29.88R
BURLINGTON VT  CLOUDY    47  41  80 CALM      29.82R
MT. WASHINGTON PTSUNNY   32  23  69 S10         N/A  WCI  24
$$

NYZ052-076-041300-
EASTERN NEW YORK

CITY           SKY/WX    TMP DP  RH WIND       PRES   REMARKS
ALBANY         CLOUDY    50  47  89 S7        29.82R
6HR MIN TEMP:  49; 6HR MAX TEMP:  50; 6HR PCP:  0.05;

NEW YORK CITY  CLOUDY    51  47  86 E7        29.81S
6HR MIN TEMP:  49; 6HR MAX TEMP:  51; 6HR PCP:  0.01;

$$

ANZALL-041300-
MARINE OBSERVATIONS

STATION/POSITION TIME  TEMP    WIND        PRES    VSBY  WAVE
                       AIR SEA DIR/SP/G                  HT/PER
                 (UTC) (F)     (DEG/KT/KT) (MB)    (MI)  (FT/S)
BOSTON BUOY      1150   46 47   60/  8/ 10 1011.2R         2/ 8
BUZZARDS BAY     1200   46      60/ 14/ 15 1011.2R
NANTUCKET SOUND  1150   47 49   50/ 16/ 19 1010.5F         2/ 3
MASS BAY-STELLWA 1104   45 46                N/A    1 7/8  2/ 8
ISLE OF SHOALS   1200   46      50/  6/  7 1012.6R
S OF BLOCK IS    NOT AVBL
$$

......................KEY.........................
  SKY/WX - SKY CONDITION/PRESENT WEATHER
  TMP    - TEMPERATURE IN FAHRENHEIT
  DWPT   - DEWPOINT IN FAHRENHEIT
  RH     - RELATIVE HUMIDITY IN PERCENT
  WIND   - DIRECTION AND SPEED IN MPH
  PRES   - MEAN SEA LEVEL PRESSURE IN INCHES OF HG
  WCI    - WIND CHILL INDEX
  VSB    - VISIBILITY IN MILES
  HX     - HEAT INDEX
  TC     - TEMPERATURE IN CELSIUS
  VRB    - VARIABLE WIND DIRECTION
  N/A    - NOT AVAILABLE




USA.gov is the U.S. government's official web portal to all federal, state and local government web resources and services.